sat.trackr.live / text

‹ back to catalog

STARLINK-3986

NORAD 52623 · 2022-052AB

PAYLOAD ACTIVE UNKNOWN

§ Identity

Operator
Country
US
Launch date
2022-05-14
Launch site
AFETR
Launch vehicle
Mass (kg)
RCS (m²)

Purposes: comms

External: N2YO · Heavens-Above · Gunter

§ Orbital elements

Epoch: 2026-05-25T02:31:22.540800Z

Period
95.44 min
Inclination
53.2160°
Eccentricity
0.0000300
Mean motion
15.08841013 rev/d
Perigee alt
539.5 km
Apogee alt
539.9 km
Semi-major
6,917.9 km
B*
6.9105e-5
RAAN
286.0750°
Arg perigee
85.6143°
Mean anomaly
274.4884°
Rev number
22,252

§ Raw data

STARLINK-39861 52623U 22052AB  26145.10512200  .00000813  00000+0  69105-4 0  99942 52623  53.2160 286.0750 0000300  85.6143 274.4884 15.08841013222526

JSON: /api/v1/satellites/52623 · /tle

For live sub-satellite position, see the globe view (requires WebGL).

§ Visibility from observer

Set your observer location to see the next 7 days of passes ≥ 10°. The values pass through the URL so the page stays shareable.

No JS? Fill the form by hand. The geolocation button needs JavaScript.